Dewpoint
57 57 57 57 57 57 57 57 58 58 58 58 57 57 58 58 58 55 33 36 42 68 68 60 49 48 57 58 57 58 50 43 39 37 34 33 30 33 35 40 53 56 57 60 67
57 57 57 57 58 58 58 58 57 57 57 57 57 58 58 58 51 40 51 61 68 70 52 42 42 44 47 46 54 54 49 42 43 37 31 29 29 29 33 28 44 55 62 66 67
58 58 58 57 57 58 58 58 57 57 57 57 57 58 58 58 37 5 68 65 69 64 47 36 39 39 44 50 52 52 45 44 34 33 30 24 25 28 29 24 23 34 60 66 66
58 58 58 57 57 57 58 58 57 57 57 57 56 57 58 54 21 24 71 69 70 50 36 34 40 40 41 42 45 42 41 40 29 23 22 22 23 20 23 23 23 28 60 65 65
58 58 58 57 57 57 57 57 57 57 56 56 56 57 55 26 13 59 70 68 59 42 30 28 32 37 40 40 36 34 31 22 24 22 22 23 21 21 20 22 28 38 59 64 65
58 58 57 57 57 57 57 57 57 56 56 56 56 58 40 9 25 57 53 47 42 35 32 37 35 44 40 34 24 25 23 20 21 22 23 19 18 19 22 25 28 52 57 61 64
58 58 57 57 56 57 57 57 57 57 57 57 58 55 32 7 40 49 42 34 39 39 35 40 49 40 31 29 21 21 19 21 18 18 19 20 17 21 44 35 37 52 60 62 64
57 57 57 56 56 56 57 56 59 58 57 58 58 52 21 26 45 41 38 39 38 38 37 40 43 34 29 22 22 20 19 16 20 21 20 21 19 30 48 47 47 53 57 61 64
57 57 57 56 55 55 55 56 59 59 59 59 50 42 30 46 36 35 36 33 41 39 39 35 32 29 26 22 18 22 15 17 18 23 23 21 21 35 47 52 53 53 57 59 61
57 57 56 55 54 55 55 55 58 58 57 55 50 36 33 28 31 24 39 32 23 22 23 26 27 30 25 21 14 15 15 16 20 20 21 23 35 40 44 49 53 55 57 58 59
57 56 56 54 54 54 50 39 32 29 29 23 29 35 33 28 27 22 35 34 19 20 17 21 16 17 17 20 17 17 19 20 20 22 22 27 35 38 43 43 47 50 55 57 59
56 56 55 53 53 54 46 35 35 34 28 27 26 26 27 27 19 18 22 18 18 17 18 18 17 18 17 17 17 19 20 21 22 20 21 21 34 36 39 42 44 46 50 54 57
56 56 54 53 53 44 41 37 39 32 27 26 23 23 21 23 18 17 17 18 17 17 17 17 16 21 20 20 20 21 21 21 19 20 19 20 22 35 38 39 42 43 46 49 55
55 55 53 52 45 43 37 40 39 33 27 21 22 21 21 20 15 19 18 19 18 15 18 17 17 21 21 21 20 20 22 21 19 20 18 20 17 26 37 37 40 42 44 46 50
55 55 52 53 46 36 33 42 36 31 21 22 18 20 15 14 14 15 19 17 17 16 20 17 20 20 20 22 22 19 24 23 23 22 21 21 18 25 37 36 38 42 46 47 51
55 53 52 50 47 43 43 41 33 28 19 17 16 16 13 13 13 15 17 20 20 18 20 19 23 23 22 23 23 25 24 26 25 21 18 24 22 20 31 37 40 42 46 50 51
54 51 51 49 38 45 44 36 26 24 26 19 18 18 19 21 17 17 18 22 17 18 22 24 23 23 25 22 23 23 20 15 18 17 14 26 24 26 35 40 42 43 46 51 51
52 51 50 48 48 49 37 33 26 24 20 21 20 21 22 22 23 21 19 23 26 22 24 21 20 24 26 24 23 24 23 18 16 16 16 30 24 30 40 43 44 45 47 52 53
50 46 44 42 48 41 32 23 27 25 25 23 19 21 23 23 23 23 25 23 24 25 23 22 20 25 25 26 25 27 28 25 26 29 25 26 30 32 41 44 44 44 46 50 55
47 43 41 42 44 32 28 28 28 27 27 23 20 22 23 25 24 25 24 25 23 24 27 27 25 25 26 26 29 28 30 25 28 24 22 24 29 25 34 36 46 48 48 52 57
42 39 40 41 36 33 27 27 27 28 28 24 21 24 24 25 26 26 27 27 30 27 29 27 28 26 27 27 27 28 26 30 28 29 21 22 24 36 37 45 50 51 53 56 57
42 30 41 39 35 31 30 29 33 29 30 24 25 25 23 25 26 28 28 31 33 29 27 30 27 26 26 28 29 29 30 28 24 26 29 28 25 33 42 48 52 53 54 55 57
44 41 43 38 31 33 34 31 31 31 30 29 24 25 25 26 27 28 30 31 33 32 31 32 30 25 27 27 29 28 29 30 31 32 28 26 24 36 42 47 50 51 51 53 55
43 37 43 41 39 35 35 32 31 33 30 32 28 26 28 28 31 30 27 28 29 35 46 41 32 31 24 28 29 29 27 27 27 23 22 26 29 34 39 44 49 51 52 53 56
42 41 43 40 39 38 36 34 32 31 33 31 29 25 26 29 28 27 25 25 26 41 33 32 30 31 25 28 27 26 24 24 24 26 28 26 32 38 46 50 50 51 53 53 54
43 45 44 43 42 38 37 36 33 33 34 29 28 28 26 28 28 28 26 28 27 29 30 31 29 32 26 24 24 23 24 24 24 25 28 32 39 47 50 51 48 51 52 53 54
46 45 44 43 41 38 36 37 35 36 35 33 34 30 27 29 32 28 28 28 30 30 30 30 30 29 23 24 23 23 25 25 29 37 40 40 42 48 48 48 50 52 54 55 55
Lifted_Index
17 17 17 17 17 17 17 16 16 15 15 15 15 14 14 14 12 11 10 10 9 6 5 6 7 6 3 0 -1 -1 -1 1 2 2 3 3 3 3 2 0 -2 -4 -5 -6 -6
17 17 18 17 17 17 16 16 15 15 15 15 15 14 14 13 12 10 10 10 8 6 6 8 8 7 4 2 0 -1 0 1 3 3 3 3 3 3 2 1 -0 -2 -5 -6 -6
16 17 17 18 17 17 16 16 15 15 14 15 15 14 14 12 10 9 8 8 7 7 8 9 9 7 5 3 1 1 2 3 4 5 4 4 3 3 3 3 2 -0 -4 -6 -6
15 16 17 18 18 17 16 15 15 14 14 14 14 14 13 11 9 7 6 5 6 8 9 9 8 7 5 4 3 3 4 5 6 6 6 5 5 5 5 4 4 2 -3 -6 -6
15 15 16 17 17 16 15 15 14 14 14 14 14 14 12 10 8 7 6 5 7 9 10 9 8 6 5 5 5 6 6 6 7 7 6 6 5 5 5 5 4 2 -2 -5 -6
14 14 15 16 16 15 14 14 14 14 14 14 14 13 11 9 9 8 7 8 8 9 9 8 7 5 5 6 7 7 7 7 7 7 6 5 5 5 5 4 3 1 -2 -5 -5
13 13 14 15 15 14 14 14 14 13 14 14 13 12 10 9 9 9 9 9 9 9 9 8 6 5 6 7 7 7 6 6 6 6 5 5 4 4 4 4 3 -0 -3 -5 -5
12 12 13 14 14 14 13 13 13 13 13 13 12 11 9 9 10 10 9 9 8 8 8 7 6 6 7 7 7 6 5 5 5 5 5 4 3 3 2 2 1 -0 -2 -4 -5
12 12 12 13 14 14 13 13 13 13 12 12 11 10 9 9 10 10 10 9 8 8 8 8 7 7 7 6 5 5 4 4 4 5 5 4 3 3 2 1 0 -0 -2 -3 -4
11 12 12 13 14 14 13 13 12 12 11 11 10 9 9 9 10 10 10 9 9 8 8 7 7 7 6 5 4 4 4 4 4 4 4 4 4 3 3 2 1 0 -1 -2 -2
11 11 12 12 13 14 13 12 11 10 10 9 9 9 9 9 9 10 10 9 8 8 7 7 6 6 6 5 5 4 4 4 4 5 4 4 4 4 4 3 2 1 1 -0 -1
11 11 11 12 13 13 13 12 11 10 9 8 9 9 9 9 9 9 9 8 7 6 6 6 6 6 6 6 5 5 4 4 4 5 5 4 4 4 5 4 4 3 2 1 0
11 11 11 12 12 12 12 12 12 11 8 7 8 9 9 9 8 8 8 7 6 6 6 6 6 6 6 5 5 5 4 4 4 4 4 4 4 4 5 5 5 4 3 2 1
11 11 11 11 11 12 12 13 12 10 7 6 8 8 8 8 7 7 7 7 6 6 5 5 6 6 6 5 5 5 5 5 4 4 4 4 4 4 4 5 4 4 4 3 3
11 11 11 11 11 11 12 12 11 8 5 5 7 8 8 7 7 7 7 6 6 5 5 5 6 6 6 6 6 5 5 5 4 4 4 4 3 3 4 4 3 3 3 3 3
11 11 11 10 11 11 12 11 9 6 4 5 7 7 7 6 6 6 6 6 5 5 5 5 6 6 6 6 6 5 5 4 4 3 3 3 3 3 3 3 3 3 3 2 2
12 11 10 10 10 11 11 9 6 4 5 6 6 6 6 6 6 6 5 5 5 4 4 5 5 6 6 6 6 5 4 3 2 2 2 3 3 3 3 3 3 3 2 2 2
12 11 10 10 10 10 9 7 5 4 6 6 6 6 5 5 5 5 5 5 5 5 4 4 4 5 5 5 5 5 5 3 2 2 2 3 3 3 3 2 2 2 2 1 1
12 11 10 10 10 10 8 6 5 6 7 7 6 6 6 5 5 5 5 6 6 5 5 4 4 5 5 5 5 6 6 5 4 3 3 4 4 4 3 2 2 2 1 0 -0
12 11 10 10 10 9 8 7 7 8 8 7 6 6 6 6 5 5 6 6 6 6 6 5 5 5 5 5 6 6 6 6 5 3 2 3 4 4 3 3 2 1 0 -0 -1
12 11 10 10 10 9 8 8 8 8 8 8 7 7 6 6 6 6 6 6 6 6 6 6 5 5 5 5 6 6 6 6 5 4 3 3 4 4 4 3 1 0 -1 -1 -2
11 11 10 9 9 9 8 8 9 8 8 8 8 7 7 6 6 6 6 6 6 6 6 6 6 6 6 6 6 6 6 6 6 5 5 4 4 4 4 2 1 0 -0 -1 -1
10 10 9 9 8 8 9 9 8 8 8 8 8 8 7 7 7 7 6 6 6 6 6 6 6 6 6 6 7 6 6 6 5 5 5 5 4 4 3 2 1 0 0 -0 -1
10 9 9 8 8 8 8 8 8 8 8 8 8 8 8 7 7 7 7 7 7 6 6 6 6 6 6 7 7 6 6 6 6 5 5 4 4 3 2 2 1 0 0 0 -0
9 9 8 8 8 8 8 8 8 8 7 8 8 8 8 7 7 7 7 7 7 7 7 7 7 7 7 7 7 7 6 6 6 6 5 4 3 2 1 0 0 0 0 0 0
9 9 8 8 7 7 7 7 7 7 7 7 7 7 7 7 7 7 7 7 7 7 7 7 7 7 7 7 7 7 6 6 6 5 4 3 2 1 -0 -0 0 1 0 0 0
10 9 8 8 7 7 7 7 7 7 7 7 7 7 7 7 7 7 7 7 7 7 7 7 7 7 6 6 7 6 6 6 5 4 3 2 1 -0 -1 0 1 1 0 -0 0